| time (UTC) | temp F | wind direction | speed knots | gust knots | rain 1hr in | rain 24hr in | rain mn in | humidity % | barometer mb |
| 20260507234101 | 53 | 179 | 0.9 | 5.2 | 0.00 | 0.02 | 0.00 | 84 | 1013.4 |
| 20260507233601 | 53 | 226 | 1.7 | 5.2 | 0.00 | 0.02 | 0.00 | 84 | 1013.2 |
| 20260507233319 | 53 | 230 | 4.3 | 5.2 | 0.00 | 0.02 | 0.00 | 84 | 1013.4 |
| 20260507232600 | 53 | 273 | 2.6 | 5.2 | 0.00 | 0.02 | 0.00 | 85 | 1013.4 |
| 20260507232057 | 53 | 299 | 1.7 | 5.2 | 0.00 | 0.03 | 0.00 | 84 | 1013.3 |
| 20260507231559 | 53 | 70 | 1.7 | 4.3 | 0.00 | 0.03 | 0.00 | 84 | 1013.3 |
| 20260507231100 | 53 | 245 | 1.7 | 3.5 | 0.00 | 0.03 | 0.00 | 84 | 1013.6 |
| 20260507230559 | 54 | 234 | 0.0 | 3.5 | 0.00 | 0.03 | 0.00 | 84 | 1013.4 |
| 20260507230531 | 54 | 234 | 0.9 | 6.1 | 0.00 | 0.03 | 0.00 | 82 | 1013.5 |
| 20260507230148 | 54 | 287 | 0.9 | 4.3 | 0.00 | 0.03 | 0.00 | 83 | 1013.6 |
| 20260507225057 | 54 | 230 | 1.7 | 6.1 | 0.00 | 0.04 | 0.00 | 82 | 1013.4 |
| 20260507224600 | 54 | 337 | 2.6 | 3.5 | 0.00 | 0.05 | 0.00 | 83 | 1013.5 |
| 20260507224058 | 54 | 329 | 1.7 | 3.5 | 0.00 | 0.06 | 0.00 | 83 | 1013.5 |
| 20260507224037 | 54 | 248 | 1.7 | 3.5 | 0.00 | 0.06 | 0.00 | 84 | 1013.7 |
| 20260507224027 | 54 | 175 | 1.7 | 3.5 | 0.00 | 0.06 | 0.00 | 84 | 1013.7 |
| 20260507222559 | 55 | 163 | 0.9 | 4.3 | 0.00 | 0.06 | 0.00 | 83 | 1013.6 |
| 20260507222057 | 55 | 278 | 1.7 | 4.3 | 0.00 | 0.06 | 0.00 | 83 | 1013.4 |
| 20260507221559 | 55 | 226 | 1.7 | 4.3 | 0.00 | 0.06 | 0.00 | 82 | 1013.5 |
| 20260507221057 | 55 | 348 | 0.9 | 4.3 | 0.00 | 0.07 | 0.00 | 83 | 1013.7 |
| 20260507220823 | 55 | 221 | 2.6 | 4.3 | 0.00 | 0.07 | 0.00 | 84 | 1013.2 |
| 20260507220316 | 55 | 310 | 1.7 | 4.3 | 0.00 | 0.07 | 0.00 | 83 | 1013.3 |
| 20260507215607 | 55 | 241 | 1.7 | 5.2 | 0.00 | 0.09 | 0.07 | 82 | 1013.5 |
| 20260507215558 | 55 | 206 | 1.7 | 4.3 | 0.00 | 0.07 | 0.07 | 83 | 1013.1 |
| 20260507215507 | 55 | 186 | 5.2 | 5.2 | 0.00 | 0.12 | 0.07 | 83 | 1013.1 |
| 20260507214823 | 56 | 185 | 2.6 | 5.2 | 0.00 | 0.11 | 0.07 | 81 | 1013.4 |
| 20260507213827 | 55 | 195 | 1.7 | 3.5 | 0.00 | 0.13 | 0.07 | 83 | 1012.8 |
| 20260507213259 | 55 | 241 | 0.9 | 7.8 | 0.00 | 0.15 | 0.07 | 84 | 1013.0 |
| 20260507213057 | 55 | 206 | 2.6 | 5.2 | 0.00 | 0.14 | 0.07 | 83 | 1013.0 |
| 20260507212608 | 55 | 225 | 0.9 | 7.8 | 0.00 | 0.16 | 0.07 | 84 | 1013.1 |
| 20260507211818 | 55 | 331 | 0.9 | 5.2 | 0.00 | 0.17 | 0.07 | 84 | 1013.0 |
| 20260507211056 | 55 | 315 | 2.6 | 4.3 | 0.00 | 0.17 | 0.07 | 84 | 1013.1 |
| 20260507210601 | 55 | 290 | 0.0 | 4.3 | 0.00 | 0.17 | 0.07 | 84 | 1013.2 |
| 20260507210317 | 55 | 304 | 1.7 | 4.3 | 0.00 | 0.17 | 0.07 | 84 | 1012.9 |
| 20260507205558 | 55 | 284 | 1.7 | 4.3 | 0.00 | 0.17 | 0.07 | 84 | 1013.0 |
| 20260507205056 | 55 | 272 | 0.9 | 4.3 | 0.00 | 0.17 | 0.07 | 84 | 1012.9 |
| 20260507204559 | 56 | 299 | 1.7 | 5.2 | 0.00 | 0.17 | 0.07 | 83 | 1013.0 |
| 20260507204315 | 56 | 321 | 3.5 | 5.2 | 0.00 | 0.17 | 0.07 | 82 | 1012.9 |
| 20260507203558 | 56 | 312 | 2.6 | 5.2 | 0.00 | 0.17 | 0.07 | 82 | 1013.1 |
| 20260507203057 | 56 | 313 | 2.6 | 5.2 | 0.00 | 0.18 | 0.07 | 81 | 1013.1 |
| 20260507202558 | 56 | 251 | 3.5 | 5.2 | 0.00 | 0.18 | 0.07 | 81 | 1012.9 |
| 20260507202057 | 56 | 318 | 2.6 | 4.3 | 0.00 | 0.18 | 0.07 | 81 | 1012.8 |
| 20260507201825 | 56 | 301 | 1.7 | 4.3 | 0.00 | 0.18 | 0.07 | 82 | 1012.8 |
| 20260507201056 | 56 | 259 | 1.7 | 4.3 | 0.00 | 0.18 | 0.07 | 82 | 1012.8 |
| 20260507201046 | 56 | 316 | 1.7 | 4.3 | 0.00 | 0.18 | 0.07 | 82 | 1012.7 |
| 20260507200057 | 56 | 292 | 1.7 | 3.5 | 0.00 | 0.18 | 0.07 | 82 | 1012.4 |
| 20260507195557 | 56 | 243 | 1.7 | 4.3 | 0.00 | 0.18 | 0.07 | 81 | 1012.4 |
| 20260507195057 | 57 | 314 | 1.7 | 4.3 | 0.00 | 0.18 | 0.07 | 80 | 1012.5 |
| 20260507194910 | 58 | 249 | 1.7 | 4.3 | 0.00 | 0.18 | 0.07 | 79 | 1012.2 |
| 20260507194812 | 58 | 264 | 1.7 | 5.2 | 0.00 | 0.18 | 0.07 | 78 | 1012.2 |
| 20260507193601 | 58 | 289 | 3.5 | 5.2 | 0.00 | 0.18 | 0.07 | 77 | 1012.0 |
| 20260507193056 | 58 | 23 | 0.0 | 4.3 | 0.00 | 0.18 | 0.07 | 78 | 1012.0 |
| 20260507192601 | 58 | 303 | 2.6 | 3.5 | 0.00 | 0.18 | 0.07 | 79 | 1011.7 |
| 20260507192056 | 58 | 295 | 1.7 | 6.1 | 0.00 | 0.18 | 0.07 | 77 | 1011.8 |
| 20260507191734 | 58 | 307 | 1.7 | 3.5 | 0.00 | 0.18 | 0.07 | 77 | 1011.7 |
| 20260507191600 | 59 | 306 | 1.7 | 6.1 | 0.00 | 0.18 | 0.07 | 76 | 1011.9 |
| 20260507191320 | 59 | 311 | 1.7 | 4.3 | 0.00 | 0.18 | 0.07 | 75 | 1011.7 |
| 20260507190926 | 58 | 304 | 3.5 | 3.5 | 0.00 | 0.18 | 0.07 | 77 | 1011.6 |
| 20260507185557 | 58 | 301 | 2.6 | 3.5 | 0.00 | 0.18 | 0.07 | 79 | 1011.6 |
| 20260507185545 | 58 | 297 | 1.7 | 3.5 | 0.00 | 0.18 | 0.07 | 79 | 1011.7 |
| 20260507185103 | 58 | 275 | 1.7 | 3.5 | 0.00 | 0.18 | 0.07 | 78 | 1011.7 |
| 20260507184548 | 59 | 316 | 2.6 | 3.5 | 0.00 | 0.18 | 0.07 | 78 | 1011.8 |
| 20260507184046 | 59 | 272 | 1.7 | 3.5 | 0.00 | 0.18 | 0.07 | 76 | 1011.6 |
| 20260507183057 | 60 | 280 | 1.7 | 3.5 | 0.00 | 0.18 | 0.07 | 75 | 1011.5 |
| 20260507183043 | 59 | 300 | 1.7 | 3.5 | 0.00 | 0.18 | 0.07 | 75 | 1011.4 |
| 20260507182056 | 59 | 302 | 2.6 | 3.5 | 0.00 | 0.18 | 0.07 | 75 | 1011.4 |
| 20260507181816 | 60 | 323 | 2.6 | 4.3 | 0.00 | 0.18 | 0.07 | 74 | 1011.0 |
| 20260507181056 | 60 | 330 | 2.6 | 4.3 | 0.00 | 0.18 | 0.07 | 71 | 1011.1 |
| 20260507180831 | 60 | 273 | 1.7 | 4.3 | 0.00 | 0.18 | 0.07 | 70 | 1011.1 |
| 20260507180056 | 61 | 306 | 2.6 | 3.5 | 0.00 | 0.18 | 0.07 | 70 | 1011.1 |
| 20260507175823 | 61 | 291 | 0.9 | 3.5 | 0.00 | 0.18 | 0.07 | 69 | 1011.1 |
| 20260507175314 | 61 | 281 | 1.7 | 5.2 | 0.00 | 0.19 | 0.07 | 68 | 1010.9 |
| 20260507174559 | 62 | 312 | 3.5 | 5.2 | 0.00 | 0.20 | 0.07 | 66 | 1011.1 |
| 20260507174057 | 61 | 354 | 3.5 | 6.1 | 0.00 | 0.22 | 0.07 | 65 | 1010.9 |
| 20260507174043 | 60 | 321 | 1.7 | 6.1 | 0.00 | 0.22 | 0.07 | 69 | 1011.0 |
| 20260507173056 | 60 | 298 | 2.6 | 6.1 | 0.00 | 0.22 | 0.07 | 70 | 1011.1 |
| 20260507173046 | 61 | 328 | 2.6 | 5.2 | 0.00 | 0.22 | 0.07 | 70 | 1010.7 |
| 20260507172056 | 61 | 342 | 1.7 | 5.2 | 0.00 | 0.22 | 0.07 | 68 | 1010.8 |
| 20260507172040 | 61 | 312 | 1.7 | 5.2 | 0.00 | 0.22 | 0.07 | 67 | 1010.7 |
| 20260507171056 | 61 | 285 | 3.5 | 5.2 | 0.00 | 0.22 | 0.07 | 68 | 1010.7 |
| 20260507170558 | 61 | 307 | 1.7 | 4.3 | 0.00 | 0.22 | 0.07 | 69 | 1010.8 |
| 20260507170055 | 61 | 299 | 1.7 | 5.2 | 0.00 | 0.22 | 0.07 | 69 | 1010.9 |
| 20260507170041 | 61 | 272 | 2.6 | 5.2 | 0.00 | 0.22 | 0.07 | 69 | 1010.6 |
| 20260507165059 | 62 | 310 | 3.5 | 4.3 | 0.00 | 0.22 | 0.07 | 70 | 1010.6 |
| 20260507164559 | 62 | 299 | 0.9 | 5.2 | 0.00 | 0.22 | 0.07 | 71 | 1010.8 |
| 20260507164315 | 62 | 0 | 1.7 | 5.2 | 0.00 | 0.22 | 0.07 | 70 | 1010.7 |
| 20260507163557 | 62 | 305 | 2.6 | 4.3 | 0.00 | 0.22 | 0.07 | 68 | 1010.5 |
| 20260507163055 | 63 | 267 | 2.6 | 4.3 | 0.00 | 0.22 | 0.07 | 66 | 1010.7 |
| 20260507162557 | 64 | 304 | 1.7 | 4.3 | 0.00 | 0.22 | 0.07 | 64 | 1010.7 |
| 20260507162059 | 64 | 215 | 1.7 | 4.3 | 0.00 | 0.22 | 0.07 | 61 | 1010.8 |
| 20260507161557 | 64 | 266 | 1.7 | 4.3 | 0.00 | 0.22 | 0.07 | 59 | 1010.5 |
| 20260507161056 | 65 | 269 | 0.0 | 2.6 | 0.00 | 0.22 | 0.07 | 61 | 1010.6 |
| 20260507160557 | 65 | 225 | 0.0 | 2.6 | 0.00 | 0.22 | 0.07 | 57 | 1010.6 |
| 20260507160056 | 66 | 183 | 0.9 | 2.6 | 0.00 | 0.22 | 0.07 | 54 | 1010.5 |
| 20260507155556 | 66 | 214 | 0.9 | 2.6 | 0.00 | 0.22 | 0.07 | 55 | 1010.4 |
| 20260507155320 | 68 | 213 | 1.7 | 2.6 | 0.00 | 0.22 | 0.07 | 49 | 1010.6 |
| 20260507154818 | 66 | 213 | 2.6 | 3.5 | 0.00 | 0.22 | 0.07 | 45 | 1010.6 |
| 20260507154558 | 67 | 253 | 0.9 | 2.6 | 0.00 | 0.22 | 0.07 | 46 | 1010.5 |
| 20260507153556 | 66 | 198 | 2.6 | 3.5 | 0.00 | 0.22 | 0.07 | 47 | 1010.6 |
| 20260507153059 | 66 | 199 | 3.5 | 3.5 | 0.00 | 0.22 | 0.07 | 51 | 1010.6 |
| 20260507152556 | 66 | 156 | 1.7 | 3.5 | 0.00 | 0.22 | 0.07 | 54 | 1010.4 |
| 20260507152055 | 66 | 181 | 1.7 | 4.3 | 0.00 | 0.22 | 0.07 | 52 | 1010.4 |
| 20260507152043 | 67 | 186 | 1.7 | 4.3 | 0.00 | 0.22 | 0.07 | 52 | 1010.5 |
| 20260507151327 | 67 | 186 | 1.7 | 5.2 | 0.00 | 0.22 | 0.07 | 47 | 1010.6 |
| 20260507150557 | 68 | 210 | 1.7 | 5.2 | 0.00 | 0.22 | 0.07 | 48 | 1010.6 |
| 20260507150059 | 69 | 146 | 1.7 | 3.5 | 0.00 | 0.22 | 0.07 | 47 | 1010.6 |
| 20260507145813 | 69 | 181 | 1.7 | 4.3 | 0.00 | 0.22 | 0.07 | 46 | 1010.4 |
| 20260507145056 | 68 | 177 | 1.7 | 4.3 | 0.00 | 0.22 | 0.07 | 50 | 1010.7 |
| 20260507144559 | 68 | 188 | 1.7 | 5.2 | 0.00 | 0.22 | 0.07 | 51 | 1010.7 |
| 20260507144056 | 67 | 159 | 2.6 | 5.2 | 0.00 | 0.22 | 0.07 | 53 | 1010.7 |
| 20260507143819 | 68 | 180 | 1.7 | 7.8 | 0.00 | 0.22 | 0.07 | 54 | 1010.9 |
| 20260507143314 | 68 | 189 | 1.7 | 7.8 | 0.00 | 0.22 | 0.07 | 51 | 1010.7 |
| 20260507142557 | 67 | 154 | 6.1 | 7.0 | 0.00 | 0.22 | 0.07 | 51 | 1010.7 |
| 20260507142055 | 67 | 159 | 3.5 | 6.1 | 0.00 | 0.22 | 0.07 | 52 | 1010.8 |
| 20260507141556 | 67 | 171 | 2.6 | 8.7 | 0.00 | 0.22 | 0.07 | 52 | 1010.8 |
| 20260507141056 | 67 | 142 | 3.5 | 8.7 | 0.00 | 0.22 | 0.07 | 52 | 1010.8 |
| 20260507140824 | 68 | 164 | 6.1 | 7.8 | 0.00 | 0.22 | 0.07 | 53 | 1011.1 |
| 20260507140314 | 68 | 187 | 1.7 | 5.2 | 0.00 | 0.22 | 0.07 | 54 | 1011.0 |
| 20260507135557 | 68 | 159 | 2.6 | 5.2 | 0.00 | 0.22 | 0.07 | 55 | 1010.9 |
| 20260507135325 | 68 | 208 | 0.0 | 5.2 | 0.00 | 0.22 | 0.07 | 52 | 1011.1 |
| 20260507134559 | 69 | 191 | 2.6 | 6.1 | 0.00 | 0.22 | 0.07 | 50 | 1011.1 |
| 20260507134058 | 68 | 167 | 2.6 | 6.1 | 0.00 | 0.22 | 0.07 | 54 | 1011.1 |
| 20260507133821 | 69 | 186 | 2.6 | 5.2 | 0.00 | 0.22 | 0.07 | 55 | 1011.2 |
| 20260507133322 | 67 | 145 | 0.9 | 4.3 | 0.00 | 0.22 | 0.07 | 57 | 1011.4 |
| 20260507132559 | 67 | 89 | 0.0 | 4.3 | 0.00 | 0.22 | 0.07 | 57 | 1011.4 |
| 20260507132054 | 68 | 6 | 1.7 | 4.3 | 0.00 | 0.22 | 0.07 | 56 | 1011.2 |
| 20260507131558 | 67 | 346 | 0.9 | 3.5 | 0.00 | 0.22 | 0.07 | 57 | 1011.6 |
| 20260507131058 | 65 | 322 | 1.7 | 3.5 | 0.00 | 0.22 | 0.07 | 61 | 1011.6 |
| 20260507130556 | 65 | 261 | 0.9 | 3.5 | 0.00 | 0.22 | 0.07 | 60 | 1011.6 |
| 20260507130055 | 66 | 286 | 1.7 | 3.5 | 0.00 | 0.22 | 0.07 | 58 | 1011.4 |
| 20260507130043 | 65 | 308 | 0.0 | 3.5 | 0.00 | 0.22 | 0.07 | 56 | 1011.5 |
| 20260507125059 | 63 | 323 | 0.0 | 3.5 | 0.00 | 0.22 | 0.07 | 64 | 1011.7 |
| 20260507124600 | 62 | 301 | 0.9 | 3.5 | 0.00 | 0.22 | 0.07 | 67 | 1011.4 |
| 20260507124318 | 62 | 182 | 1.7 | 3.5 | 0.00 | 0.22 | 0.07 | 67 | 1011.5 |
| 20260507123600 | 63 | 64 | 0.9 | 4.3 | 0.00 | 0.22 | 0.07 | 65 | 1011.5 |
| 20260507123324 | 64 | 287 | 0.0 | 4.3 | 0.00 | 0.22 | 0.07 | 61 | 1011.6 |
| 20260507122819 | 65 | 258 | 0.0 | 4.3 | 0.00 | 0.22 | 0.07 | 59 | 1011.7 |
| 20260507122320 | 65 | 176 | 0.9 | 6.1 | 0.00 | 0.22 | 0.07 | 57 | 1011.6 |
| 20260507122311 | 65 | 156 | 2.6 | 6.1 | 0.00 | 0.22 | 0.07 | 52 | 1011.6 |
| 20260507121502 | 67 | 156 | 4.3 | 7.0 | 0.00 | 0.22 | 0.07 | 52 | 1011.8 |
| 20260507121349 | 66 | 198 | 0.0 | 7.0 | 0.00 | 0.22 | 0.07 | 54 | 1011.8 |
| 20260507120644 | 66 | 150 | 2.6 | 7.0 | 0.00 | 0.22 | 0.07 | 52 | 1011.8 |
| 20260507115600 | 66 | 200 | 2.6 | 6.1 | 0.00 | 0.22 | 0.07 | 58 | 1011.7 |
| 20260507115552 | 66 | 188 | 1.7 | 6.1 | 0.00 | 0.22 | 0.07 | 59 | 1011.8 |
| 20260507114558 | 67 | 181 | 3.5 | 7.0 | 0.00 | 0.22 | 0.07 | 61 | 1011.7 |
| 20260507114320 | 66 | 146 | 5.2 | 7.0 | 0.00 | 0.22 | 0.07 | 59 | 1011.7 |
| 20260507113557 | 66 | 176 | 5.2 | 6.1 | 0.00 | 0.22 | 0.07 | 59 | 1011.9 |
| 20260507113055 | 66 | 189 | 3.5 | 7.0 | 0.00 | 0.22 | 0.07 | 60 | 1011.9 |
| 20260507112557 | 66 | 200 | 3.5 | 7.0 | 0.00 | 0.22 | 0.07 | 58 | 1011.9 |
| 20260507112055 | 66 | 146 | 1.7 | 6.1 | 0.00 | 0.22 | 0.07 | 56 | 1012.0 |
| 20260507111557 | 65 | 173 | 2.6 | 7.0 | 0.00 | 0.22 | 0.07 | 56 | 1012.0 |
| 20260507111055 | 66 | 153 | 6.1 | 7.0 | 0.00 | 0.22 | 0.07 | 60 | 1012.0 |
| 20260507110600 | 66 | 155 | 3.5 | 7.0 | 0.00 | 0.22 | 0.07 | 62 | 1012.0 |
| 20260507110055 | 65 | 139 | 1.7 | 7.8 | 0.00 | 0.22 | 0.07 | 62 | 1012.0 |
| 20260507105826 | 64 | 112 | 0.9 | 7.8 | 0.00 | 0.22 | 0.07 | 62 | 1012.5 |
| 20260507105056 | 66 | 168 | 3.5 | 7.0 | 0.00 | 0.22 | 0.07 | 61 | 1012.2 |
| 20260507104821 | 65 | 174 | 2.6 | 7.8 | 0.00 | 0.22 | 0.07 | 62 | 1012.3 |
| 20260507104056 | 65 | 159 | 2.6 | 7.8 | 0.00 | 0.22 | 0.07 | 63 | 1012.4 |
| 20260507103826 | 65 | 138 | 6.1 | 8.7 | 0.00 | 0.22 | 0.07 | 61 | 1012.4 |
| 20260507103541 | 64 | 160 | 4.3 | 8.7 | 0.00 | 0.22 | 0.07 | 63 | 1012.3 |
| 20260507102805 | 64 | 168 | 3.5 | 5.2 | 0.00 | 0.22 | 0.07 | 64 | 1012.3 |
| 20260507102558 | 64 | 222 | 2.6 | 6.1 | 0.00 | 0.22 | 0.07 | 65 | 1012.6 |
| 20260507101823 | 63 | 87 | 2.6 | 7.0 | 0.00 | 0.22 | 0.07 | 64 | 1012.7 |
| 20260507101539 | 64 | 197 | 3.5 | 7.0 | 0.00 | 0.22 | 0.07 | 64 | 1012.5 |
| 20260507100556 | 63 | 180 | 3.5 | 7.0 | 0.00 | 0.22 | 0.07 | 66 | 1012.6 |
| 20260507100055 | 63 | 202 | 3.5 | 7.8 | 0.00 | 0.22 | 0.07 | 69 | 1012.6 |
| 20260507095824 | 64 | 189 | 3.5 | 7.8 | 0.00 | 0.22 | 0.07 | 69 | 1012.5 |
| 20260507095313 | 64 | 137 | 1.7 | 7.0 | 0.00 | 0.22 | 0.07 | 69 | 1013.0 |
| 20260507094828 | 63 | 219 | 1.7 | 7.0 | 0.00 | 0.22 | 0.07 | 69 | 1012.7 |
| 20260507094055 | 62 | 148 | 5.2 | 7.0 | 0.00 | 0.22 | 0.07 | 66 | 1012.4 |
| 20260507093557 | 62 | 163 | 1.7 | 7.0 | 0.00 | 0.22 | 0.07 | 68 | 1012.4 |
| 20260507093322 | 62 | 161 | 4.3 | 7.8 | 0.00 | 0.22 | 0.07 | 70 | 1012.6 |
| 20260507093048 | 62 | 159 | 7.0 | 7.8 | 0.00 | 0.22 | 0.07 | 72 | 1012.5 |
| 20260507092058 | 63 | 96 | 0.9 | 5.2 | 0.00 | 0.22 | 0.07 | 70 | 1012.6 |
| 20260507091814 | 63 | 61 | 1.7 | 5.2 | 0.00 | 0.22 | 0.07 | 71 | 1012.5 |
| 20260507091056 | 60 | 89 | 1.7 | 4.3 | 0.00 | 0.22 | 0.07 | 73 | 1012.6 |
| 20260507090602 | 61 | 50 | 3.5 | 8.7 | 0.00 | 0.22 | 0.07 | 70 | 1012.5 |
| 20260507090521 | 62 | 59 | 4.3 | 5.2 | 0.00 | 0.22 | 0.07 | 68 | 1012.6 |
| 20260507090152 | 61 | 188 | 3.5 | 8.7 | 0.00 | 0.22 | 0.07 | 74 | 1012.5 |
| 20260507085055 | 61 | 109 | 1.7 | 6.1 | 0.00 | 0.22 | 0.07 | 69 | 1012.3 |
| 20260507084825 | 60 | 80 | 3.5 | 6.1 | 0.00 | 0.22 | 0.07 | 67 | 1012.3 |
| 20260507084055 | 61 | 69 | 3.5 | 7.0 | 0.00 | 0.22 | 0.07 | 69 | 1012.3 |
| 20260507083820 | 61 | 82 | 3.5 | 7.8 | 0.00 | 0.22 | 0.07 | 69 | 1012.3 |
| 20260507083313 | 61 | 106 | 3.5 | 8.7 | 0.00 | 0.22 | 0.07 | 70 | 1012.2 |
| 20260507082557 | 61 | 65 | 5.2 | 8.7 | 0.00 | 0.22 | 0.07 | 71 | 1012.2 |
| 20260507082055 | 60 | 76 | 6.1 | 8.7 | 0.00 | 0.22 | 0.07 | 71 | 1012.2 |
| 20260507081557 | 62 | 258 | 1.7 | 7.0 | 0.00 | 0.22 | 0.07 | 72 | 1012.2 |
| 20260507081315 | 63 | 158 | 1.7 | 6.1 | 0.00 | 0.22 | 0.07 | 67 | 1012.1 |
| 20260507080557 | 62 | 286 | 2.6 | 6.1 | 0.00 | 0.22 | 0.07 | 71 | 1011.9 |
| 20260507080315 | 63 | 119 | 0.0 | 4.3 | 0.00 | 0.22 | 0.07 | 69 | 1011.9 |
| 20260507075816 | 62 | 218 | 1.7 | 6.1 | 0.00 | 0.22 | 0.07 | 73 | 1012.0 |
| 20260507075100 | 61 | 242 | 2.6 | 7.0 | 0.00 | 0.22 | 0.07 | 75 | 1012.0 |
| 20260507074558 | 59 | 80 | 2.6 | 7.0 | 0.00 | 0.22 | 0.07 | 74 | 1011.9 |
| 20260507074308 | 59 | 92 | 4.3 | 7.0 | 0.00 | 0.22 | 0.07 | 73 | 1012.0 |
| 20260507074056 | 59 | 87 | 3.5 | 7.0 | 0.00 | 0.22 | 0.07 | 74 | 1012.0 |
| 20260507073315 | 61 | 77 | 1.7 | 3.5 | 0.00 | 0.22 | 0.07 | 74 | 1012.1 |
| 20260507072559 | 60 | 241 | 1.7 | 5.2 | 0.00 | 0.22 | 0.07 | 77 | 1012.2 |
| 20260507072322 | 60 | 101 | 1.7 | 5.2 | 0.00 | 0.22 | 0.07 | 76 | 1012.1 |
| 20260507071605 | 59 | 177 | 2.6 | 7.0 | 0.00 | 0.22 | 0.07 | 78 | 1011.9 |
| 20260507071058 | 59 | 61 | 0.9 | 7.0 | 0.00 | 0.22 | 0.07 | 78 | 1011.9 |
| 20260507070557 | 58 | 196 | 1.7 | 5.2 | 0.00 | 0.22 | 0.07 | 81 | 1012.1 |
| 20260507070056 | 56 | 223 | 2.6 | 5.2 | 0.00 | 0.22 | 0.07 | 84 | 1012.2 |
| 20260507065610 | 56 | 169 | 2.6 | 5.2 | 0.00 | 0.22 | 0.07 | 84 | 1012.0 |
| 20260507065058 | 56 | 180 | 3.5 | 4.3 | 0.00 | 0.22 | 0.07 | 85 | 1011.7 |
| 20260507064821 | 56 | 158 | 2.6 | 4.3 | 0.00 | 0.22 | 0.07 | 86 | 1011.6 |
| 20260507064055 | 56 | 209 | 1.7 | 4.3 | 0.00 | 0.22 | 0.07 | 87 | 1011.7 |
| 20260507063909 | 55 | 176 | 3.5 | 4.3 | 0.00 | 0.22 | 0.07 | 88 | 1011.6 |
| 20260507063804 | 54 | 210 | 1.7 | 4.3 | 0.00 | 0.22 | 0.07 | 89 | 1011.7 |
| 20260507062556 | 53 | 265 | 1.7 | 4.3 | 0.00 | 0.22 | 0.07 | 90 | 1011.8 |
| 20260507062546 | 53 | 305 | 2.6 | 4.3 | 0.00 | 0.22 | 0.07 | 90 | 1011.5 |
| 20260507061557 | 53 | 227 | 1.7 | 3.5 | 0.00 | 0.22 | 0.07 | 90 | 1011.6 |
| 20260507061325 | 53 | 240 | 1.7 | 4.3 | 0.00 | 0.22 | 0.07 | 90 | 1011.6 |
| 20260507060823 | 54 | 226 | 1.7 | 4.3 | 0.00 | 0.22 | 0.07 | 90 | 1011.2 |
| 20260507060055 | 53 | 197 | 2.6 | 5.2 | 0.00 | 0.22 | 0.07 | 90 | 1011.6 |
| 20260507055821 | 54 | 310 | 2.6 | 5.2 | 0.00 | 0.22 | 0.07 | 89 | 1011.1 |
| 20260507055055 | 55 | 281 | 1.7 | 5.2 | 0.00 | 0.22 | 0.07 | 89 | 1011.5 |
| 20260507054558 | 54 | 195 | 3.5 | 5.2 | 0.00 | 0.22 | 0.07 | 90 | 1011.6 |
| 20260507054313 | 53 | 184 | 2.6 | 4.3 | 0.00 | 0.22 | 0.07 | 93 | 1011.5 |
| 20260507053559 | 53 | 237 | 1.7 | 4.3 | 0.00 | 0.22 | 0.07 | 94 | 1011.4 |
| 20260507053327 | 52 | 241 | 1.7 | 3.5 | 0.00 | 0.22 | 0.07 | 94 | 1011.2 |
| 20260507052557 | 53 | 208 | 2.6 | 4.3 | 0.00 | 0.22 | 0.07 | 92 | 1011.1 |
| 20260507052055 | 54 | 143 | 1.7 | 4.3 | 0.00 | 0.22 | 0.07 | 91 | 1011.5 |
| 20260507052046 | 53 | 89 | 0.9 | 4.3 | 0.00 | 0.22 | 0.07 | 92 | 1011.1 |
| 20260507051055 | 53 | 209 | 0.9 | 4.3 | 0.00 | 0.22 | 0.07 | 94 | 1011.1 |
| 20260507050806 | 51 | 287 | 0.9 | 3.5 | 0.00 | 0.22 | 0.07 | 96 | 1010.8 |
| 20260507050655 | 52 | 207 | 1.7 | 4.3 | 0.00 | 0.22 | 0.07 | 94 | 1010.8 |
| 20260507045557 | 51 | 236 | 1.7 | 4.3 | 0.00 | 0.22 | 0.07 | 96 | 1010.8 |
| 20260507045531 | 50 | 320 | 1.7 | 4.3 | 0.00 | 0.22 | 0.07 | 96 | 1011.0 |
| 20260507045046 | 51 | 46 | 0.9 | 4.3 | 0.00 | 0.22 | 0.07 | 96 | 1010.9 |
| 20260507044319 | 50 | 224 | 0.9 | 3.5 | 0.00 | 0.22 | 0.07 | 97 | 1010.6 |
| 20260507043556 | 50 | 242 | 1.7 | 5.2 | 0.00 | 0.22 | 0.07 | 97 | 1010.6 |
| 20260507043055 | 50 | 224 | 2.6 | 5.2 | 0.00 | 0.22 | 0.07 | 97 | 1010.7 |
| 20260507042557 | 50 | 292 | 0.0 | 4.3 | 0.00 | 0.22 | 0.07 | 97 | 1010.4 |
| 20260507042055 | 50 | 207 | 0.9 | 3.5 | 0.00 | 0.22 | 0.07 | 97 | 1010.5 |
| 20260507041821 | 50 | 292 | 1.7 | 3.5 | 0.00 | 0.22 | 0.07 | 97 | 1010.7 |
| 20260507041325 | 50 | 190 | 1.7 | 3.5 | 0.00 | 0.22 | 0.07 | 97 | 1010.6 |
| 20260507040821 | 50 | 234 | 1.7 | 4.3 | 0.00 | 0.22 | 0.07 | 96 | 1010.6 |
| 20260507040055 | 50 | 335 | 1.7 | 4.3 | 0.00 | 0.22 | 0.07 | 96 | 1010.5 |
| 20260507035557 | 50 | 223 | 1.7 | 3.5 | 0.00 | 0.22 | 0.07 | 96 | 1010.5 |
| 20260507035333 | 50 | 328 | 1.7 | 3.5 | 0.00 | 0.22 | 0.07 | 97 | 1010.4 |
| 20260507034558 | 50 | 269 | 1.7 | 3.5 | 0.00 | 0.22 | 0.07 | 97 | 1010.8 |
| 20260507034058 | 50 | 287 | 1.7 | 5.2 | 0.00 | 0.22 | 0.07 | 97 | 1010.3 |
| 20260507033821 | 51 | 332 | 1.7 | 5.2 | 0.00 | 0.22 | 0.07 | 97 | 1010.6 |
| 20260507033056 | 51 | 206 | 1.7 | 4.3 | 0.00 | 0.22 | 0.07 | 96 | 1010.6 |
| 20260507032818 | 51 | 277 | 0.9 | 4.3 | 0.00 | 0.22 | 0.07 | 96 | 1010.4 |
| 20260507032055 | 51 | 137 | 1.7 | 5.2 | 0.00 | 0.22 | 0.07 | 96 | 1010.5 |
| 20260507031820 | 51 | 223 | 1.7 | 7.0 | 0.00 | 0.22 | 0.07 | 96 | 1010.6 |
| 20260507031056 | 51 | 81 | 1.7 | 7.0 | 0.00 | 0.22 | 0.07 | 96 | 1010.5 |
| 20260507031023 | 51 | 234 | 1.7 | 4.3 | 0.01 | 0.22 | 0.07 | 97 | 1010.4 |
| 20260507030822 | 51 | 220 | 1.7 | 5.2 | 0.00 | 0.22 | 0.07 | 97 | 1010.4 |
| 20260507030037 | 51 | 264 | 1.7 | 4.3 | 0.02 | 0.22 | 0.07 | 97 | 1010.4 |
| 20260507025059 | 51 | 192 | 1.7 | 5.2 | 0.02 | 0.22 | 0.07 | 97 | 1010.5 |
| 20260507024559 | 51 | 274 | 1.7 | 5.2 | 0.02 | 0.22 | 0.07 | 97 | 1010.4 |
| 20260507024055 | 51 | 196 | 2.6 | 4.3 | 0.02 | 0.22 | 0.07 | 97 | 1010.4 |
| 20260507023816 | 51 | 282 | 0.9 | 4.3 | 0.02 | 0.22 | 0.07 | 98 | 1010.3 |
| 20260507023055 | 51 | 197 | 2.6 | 4.3 | 0.02 | 0.22 | 0.07 | 98 | 1010.2 |
| 20260507022819 | 51 | 206 | 1.7 | 3.5 | 0.02 | 0.22 | 0.07 | 98 | 1010.3 |
| 20260507022316 | 51 | 210 | 0.9 | 4.3 | 0.02 | 0.22 | 0.07 | 97 | 1010.4 |
| 20260507022046 | 51 | 255 | 1.7 | 4.3 | 0.02 | 0.22 | 0.07 | 97 | 1010.2 |
| 20260507021804 | 51 | 210 | 0.9 | 4.3 | 0.02 | 0.22 | 0.07 | 97 | 1010.3 |
| 20260507021301 | 52 | 284 | 2.6 | 4.3 | 0.02 | 0.22 | 0.07 | 97 | 1010.2 |
| 20260507020320 | 52 | 214 | 1.7 | 3.5 | 0.01 | 0.21 | 0.06 | 96 | 1010.0 |
| 20260507015559 | 52 | 248 | 1.7 | 3.5 | 0.00 | 0.20 | 0.06 | 96 | 1010.5 |
| 20260507015314 | 52 | 262 | 1.7 | 4.3 | 0.00 | 0.20 | 0.06 | 96 | 1010.5 |
| 20260507014602 | 52 | 200 | 2.6 | 4.3 | 0.00 | 0.20 | 0.06 | 96 | 1010.4 |
| 20260507014056 | 52 | 244 | 3.5 | 4.3 | 0.00 | 0.20 | 0.06 | 96 | 1010.5 |
| 20260507013821 | 52 | 298 | 1.7 | 4.3 | 0.00 | 0.20 | 0.06 | 97 | 1010.3 |
| 20260507013315 | 52 | 357 | 1.7 | 4.3 | 0.00 | 0.20 | 0.06 | 97 | 1010.2 |
| 20260507012556 | 51 | 221 | 1.7 | 3.5 | 0.00 | 0.20 | 0.06 | 98 | 1010.3 |
| 20260507012102 | 51 | 227 | 2.6 | 3.5 | 0.00 | 0.20 | 0.06 | 98 | 1010.1 |
| 20260507011556 | 51 | 208 | 1.7 | 3.5 | 0.00 | 0.20 | 0.06 | 98 | 1010.3 |
| 20260507011543 | 52 | 200 | 1.7 | 3.5 | 0.00 | 0.20 | 0.06 | 98 | 1010.5 |
| 20260507010815 | 51 | 215 | 2.6 | 4.3 | 0.00 | 0.20 | 0.06 | 98 | 1010.2 |
| 20260507010054 | 52 | 190 | 1.7 | 4.3 | 0.00 | 0.20 | 0.06 | 98 | 1010.0 |
| 20260507005557 | 52 | 213 | 3.5 | 4.3 | 0.00 | 0.20 | 0.06 | 97 | 1010.2 |
| 20260507005054 | 52 | 212 | 0.9 | 4.3 | 0.00 | 0.20 | 0.06 | 97 | 1010.1 |
| 20260507004557 | 52 | 188 | 1.7 | 4.3 | 0.00 | 0.20 | 0.06 | 98 | 1010.4 |
| 20260507004314 | 52 | 187 | 1.7 | 4.3 | 0.00 | 0.20 | 0.06 | 98 | 1010.0 |
| 20260507003813 | 52 | 254 | 1.7 | 4.3 | 0.00 | 0.20 | 0.06 | 98 | 1010.1 |
| 20260507003313 | 52 | 190 | 1.7 | 3.5 | 0.01 | 0.20 | 0.06 | 98 | 1010.0 |
| 20260507002555 | 52 | 267 | 1.7 | 3.5 | 0.01 | 0.20 | 0.06 | 99 | 1010.2 |
| 20260507002315 | 52 | 194 | 3.5 | 3.5 | 0.02 | 0.20 | 0.06 | 99 | 1010.4 |
| 20260507002048 | 52 | 231 | 0.0 | 3.5 | 0.02 | 0.20 | 0.06 | 99 | 1010.2 |
| 20260507001057 | 52 | 233 | 0.9 | 2.6 | 0.02 | 0.20 | 0.06 | 98 | 1010.3 |
| 20260507000555 | 52 | 204 | 1.7 | 3.5 | 0.02 | 0.20 | 0.06 | 98 | 1010.2 |
| 20260507000054 | 52 | 237 | 0.9 | 3.5 | 0.02 | 0.20 | 0.06 | 98 | 1010.4 |
| 20260506235556 | 52 | 265 | 0.9 | 4.3 | 0.02 | 0.20 | 0.06 | 98 | 1010.2 |